Location: Unspecified
(37.0842°N, 0.0000°E)
Time: 06:43:20
(UTC+00:00)

ISS - Visible Passes

Search period start: 23 May 2019 00:00
Search period end: 02 June 2019 00:00
Orbit: 407 x 410 km, 51.6° (Epoch: 23 May)

Date Brightness Start Highest point End Pass type
(mag) Time Alt. Az. Time Alt. Az. Time Alt. Az.
23 May -0.8 19:49:33 10° WNW 19:51:54 18° NNW 19:54:16 10° NNE visible
25 May -0.4 19:46:05 10° NW 19:46:59 11° NNW 19:47:52 10° N visible
25 May -0.4 23:01:00 10° N 23:01:42 12° N 23:01:42 12° N visible
27 May -0.6 22:54:55 10° NNW 22:55:42 15° NNW 22:55:42 15° NNW visible
28 May -1.1 22:04:21 10° NNW 22:06:23 16° NNE 22:06:23 16° NNE visible
29 May -0.9 21:14:02 10° N 21:15:14 11° NNE 21:16:27 10° NE visible
29 May -0.7 22:49:09 10° NW 22:49:47 15° NW 22:49:47 15° NW visible
30 May -1.8 21:58:20 10° NNW 22:00:30 27° N 22:00:30 27° N visible
31 May -1.6 21:07:39 10° NNW 21:10:08 19° NNE 21:11:14 17° NE visible
31 May -0.6 22:43:40 10° WNW 22:43:57 12° WNW 22:43:57 12° WNW visible
01 Jun -1.1 20:17:08 10° N 20:18:52 13° NNE 20:20:37 10° NE visible
01 Jun -2.3 21:52:35 10° NW 21:54:43 37° NW 21:54:43 37° NW visible
